Hourly Data Report for September 17, 2017

All times are specified in Local Standard Time (LST). Add 1 hour to adjust for Daylight Saving Time where and when it is observed.

EUREKA CLIMATE
NUNAVUT

79°59'21.000" N
85°56'02.000" W
10.00 m
2401199
71613
NEK

Download Data

Hourly Data (September 2017)
Hourly Data Report for September 17, 2017
Temp Definition
°C
Dew Point Temp Definition
°C
Rel Hum Definition
%
Wind Dir Definition
10's deg

Wind Spd Definition
km/h
Visibility Definition
km
Stn Press Definition
kPa
Hmdx Definition


Wind Chill Definition


Weather Definition


TIME
00:00 -7.7 -8.5 95 12 10   100.51   -13 LegendNANA
01:00 -7.3 -8.2 93 14 9   100.49   -12 LegendNANA
02:00 -7.5 -8.7 91 11 11   100.52   -13 LegendNANA
03:00 -7.5 -8.8 91 15 12   100.53   -13 LegendNANA
04:00 -7.5 -8.6 92 9 8   100.52   -12 LegendNANA
05:00 -7.2 -8.1 93 12 15   100.51   -13 LegendNANA
06:00 -7.3 -8.1 94 11 9   100.51   -12 LegendNANA
07:00 -7.3 -8.3 93 13 10   100.49   -12 LegendNANA
08:00 -7.4 -8.9 89 11 6   100.47   -11 LegendNANA
09:00 -7.1 -8.7 88 13 7   100.47   -11 LegendNANA
10:00 -6.9 -8.8 87 10 5   100.46   -9 LegendNANA
11:00 -7.1 -9.2 85 8 5   100.48   -10 LegendNANA
12:00 -7.3 -9.5 85 10 8   100.48   -11 LegendNANA
13:00 -8.4 -10.3 86 5 11   100.49   -14 LegendNANA
14:00 -6.9 -9.3 83 13 14   100.51   -13 LegendNANA
15:00 -7.0 -9.2 84 14 14   100.55   -13 LegendNANA
16:00 -8.3 -10.3 86 13 15   100.58   -15 LegendNANA
17:00 -7.9 -9.6 87 15 11   100.60   -13 LegendNANA
18:00 -7.0 -8.9 86 13 12   100.61   -12 LegendNANA
19:00 -7.2 -9.0 87 13 20   100.61   -14 LegendNANA
20:00 -7.5 -9.5 85 14 15   100.63   -14 LegendNANA
21:00 -7.6 -9.6 86 14 16   100.63   -14 LegendNANA
22:00 -9.2 -10.8 88 13 15   100.66   -16 LegendNANA
23:00 -9.0 -10.9 86 12 15   100.68   -16 LegendNANA

Notes on Data Quality.

Legend

  • E = Estimated
  • M = Missing
  • NA = Not Available
  • ‡ = Partner data that is not subject to review by the National Climate Archives
Date modified: